�������l�o���
Date,Time,MP-1(��Sv/h),MP-2(��Sv/h),MP-3(��Sv/h),MP-4(��Sv/h),MP-5(��Sv/h),MP-6(��Sv/h),MP-7(��Sv/h),MP-8(��Sv/h),����,����(m/s),���J
2019/11/30,00:00,0.698,1.011,0.678,1.253,0.885,0.406,0.707,0.675,�k��,5.8,��
2019/11/30,00:10,0.699,1.010,0.677,1.254,0.882,0.405,0.709,0.674,���k��,6.1,��
2019/11/30,00:20,0.700,1.010,0.676,1.251,0.885,0.407,0.706,0.673,���k��,6.0,��
2019/11/30,00:30,0.699,1.011,0.677,1.248,0.883,0.405,0.708,0.673,���k��,6.0,��
2019/11/30,00:40,0.700,1.010,0.678,1.250,0.883,0.405,0.708,0.673,���k��,5.5,��
2019/11/30,00:50,0.699,1.010,0.678,1.252,0.882,0.406,0.708,0.675,���k��,5.2,��
2019/11/30,01:00,0.699,1.010,0.678,1.253,0.884,0.406,0.708,0.676,���k��,4.7,��
2019/11/30,01:10,0.697,1.012,0.678,1.253,0.883,0.405,0.707,0.673,���k��,4.0,�L
2019/11/30,01:20,0.700,1.010,0.679,1.250,0.883,0.405,0.710,0.674,���k��,6.4,��
2019/11/30,01:30,0.698,1.012,0.677,1.250,0.883,0.405,0.708,0.675,���k��,8.8,��
2019/11/30,01:40,0.698,1.009,0.677,1.250,0.882,0.405,0.708,0.673,��,8.0,��
2019/11/30,01:50,0.698,1.010,0.679,1.251,0.883,0.406,0.710,0.673,��,8.2,��
2019/11/30,02:00,0.699,1.008,0.677,1.251,0.881,0.405,0.708,0.674,��,7.4,��
2019/11/30,02:10,0.698,1.009,0.676,1.250,0.883,0.405,0.710,0.673,���k��,7.2,��
2019/11/30,02:20,0.699,1.010,0.679,1.253,0.883,0.404,0.710,0.675,���k��,8.0,��
2019/11/30,02:30,0.698,1.009,0.677,1.250,0.883,0.404,0.708,0.674,���k��,7.4,��
2019/11/30,02:40,0.700,1.012,0.678,1.253,0.884,0.405,0.708,0.673,���k��,6.6,��
2019/11/30,02:50,0.700,1.011,0.678,1.250,0.881,0.405,0.710,0.674,���k��,8.3,��
2019/11/30,03:00,0.700,1.009,0.678,1.251,0.882,0.406,0.708,0.674,��,5.2,��
2019/11/30,03:10,0.699,1.009,0.676,1.250,0.885,0.406,0.708,0.675,���k��,6.7,��
2019/11/30,03:20,0.698,1.010,0.677,1.252,0.883,0.406,0.711,0.673,��,6.0,��
2019/11/30,03:30,0.700,1.009,0.678,1.251,0.883,0.404,0.710,0.675,��,5.6,��
2019/11/30,03:40,0.698,1.011,0.677,1.252,0.882,0.406,0.711,0.674,��,5.8,��
2019/11/30,03:50,0.699,1.011,0.677,1.253,0.881,0.405,0.710,0.675,���k��,7.4,��
2019/11/30,04:00,0.699,1.008,0.678,1.254,0.882,0.406,0.708,0.674,���k��,6.1,��
2019/11/30,04:10,0.698,1.010,0.678,1.251,0.882,0.406,0.711,0.676,���k��,7.1,��
2019/11/30,04:20,0.699,1.009,0.679,1.251,0.884,0.406,0.710,0.675,���k��,7.4,��
2019/11/30,04:30,0.699,1.008,0.680,1.253,0.883,0.405,0.710,0.675,���k��,6.9,��
2019/11/30,04:40,0.700,1.011,0.680,1.250,0.883,0.406,0.710,0.676,���k��,6.7,��
2019/11/30,04:50,0.698,1.009,0.678,1.252,0.881,0.406,0.707,0.674,���k��,7.4,��
2019/11/30,05:00,0.700,1.009,0.678,1.251,0.883,0.406,0.708,0.675,���k��,5.2,��
2019/11/30,05:10,0.698,1.010,0.678,1.253,0.882,0.406,0.709,0.674,���k��,5.0,��
2019/11/30,05:20,0.699,1.011,0.678,1.250,0.883,0.405,0.711,0.674,���k��,6.4,��
2019/11/30,05:30,0.700,1.011,0.676,1.252,0.883,0.407,0.708,0.676,���k��,4.2,��
2019/11/30,05:40,0.698,1.011,0.678,1.250,0.883,0.405,0.709,0.675,��,3.5,��
2019/11/30,05:50,0.700,1.011,0.678,1.251,0.882,0.406,0.708,0.674,���k��,3.1,��
2019/11/30,06:00,0.698,1.010,0.677,1.256,0.883,0.405,0.708,0.674,���k��,3.2,��
2019/11/30,06:10,0.698,1.008,0.678,1.253,0.884,0.405,0.708,0.674,���k��,3.9,��
2019/11/30,06:20,0.699,1.013,0.676,1.252,0.883,0.405,0.709,0.673,���k��,5.2,��
2019/11/30,06:30,0.699,1.009,0.678,1.250,0.884,0.405,0.708,0.673,�k��,6.0,��
2019/11/30,06:40,0.698,1.009,0.679,1.250,0.883,0.406,0.708,0.675,�k��,4.9,��
2019/11/30,06:50,0.699,1.010,0.678,1.252,0.882,0.405,0.709,0.674,���k��,3.0,��
2019/11/30,07:00,0.698,1.009,0.677,1.251,0.881,0.404,0.707,0.674,�k��,4.5,��
2019/11/30,07:10,0.698,1.008,0.677,1.253,0.880,0.405,0.708,0.675,�k��,6.9,��
2019/11/30,07:20,0.699,1.007,0.679,1.253,0.882,0.404,0.708,0.674,�k��,6.9,��
2019/11/30,07:30,0.700,1.010,0.677,1.252,0.882,0.405,0.709,0.676,�k��,6.3,��
2019/11/30,07:40,0.700,1.010,0.675,1.253,0.882,0.404,0.710,0.673,�k��,5.6,��
2019/11/30,07:50,0.700,1.011,0.677,1.253,0.881,0.406,0.708,0.673,�k�k��,6.3,��
2019/11/30,08:00,0.699,1.008,0.677,1.254,0.884,0.406,0.708,0.675,�k�k��,4.2,��
2019/11/30,08:10,0.698,1.013,0.679,1.251,0.883,0.406,0.708,0.673,�k�k��,5.2,��
2019/11/30,08:20,0.700,1.012,0.677,1.251,0.883,0.405,0.709,0.674,�k�k��,3.2,��
2019/11/30,08:30,0.701,1.009,0.678,1.252,0.882,0.407,0.709,0.674,�k��,2.8,��
2019/11/30,08:40,0.699,1.010,0.677,1.252,0.883,0.405,0.710,0.676,��,1.9,��
2019/11/30,08:50,0.700,1.011,0.678,1.252,0.881,0.407,0.710,0.675,�k�k��,2.4,��
2019/11/30,09:00,0.700,1.011,0.679,1.252,0.885,0.406,0.711,0.673,���k��,2.2,��
2019/11/30,09:10,0.700,1.012,0.678,1.251,0.883,0.407,0.709,0.675,�k��,1.2,��
2019/11/30,09:20,0.701,1.011,0.678,1.252,0.883,0.405,0.710,0.674,�k��,2.3,��
2019/11/30,09:30,0.700,1.008,0.677,1.255,0.885,0.404,0.709,0.673,�k��,2.0,��
2019/11/30,09:40,0.700,1.009,0.678,1.254,0.882,0.406,0.709,0.674,���쐼,1.3,��
2019/11/30,09:50,0.702,1.011,0.679,1.252,0.884,0.405,0.709,0.673,���k��,1.6,��
2019/11/30,10:00,0.701,1.012,0.682,1.253,0.885,0.406,0.709,0.674,��,2.3,��
2019/11/30,10:10,0.701,1.010,0.678,1.255,0.887,0.406,0.708,0.673,��,2.3,��
2019/11/30,10:20,0.701,1.011,0.678,1.252,0.885,0.406,0.708,0.674,�k�k��,1.4,��
2019/11/30,10:30,0.701,1.012,0.678,1.252,0.885,0.407,0.708,0.674,�k�k��,1.3,��
2019/11/30,10:40,0.702,1.011,0.680,1.254,0.884,0.406,0.706,0.674,�k��,3.6,��
2019/11/30,10:50,0.703,1.011,0.678,1.254,0.888,0.406,0.709,0.676,�k�k��,3.6,��
2019/11/30,11:00,0.701,1.014,0.679,1.257,0.887,0.407,0.708,0.675,�k��,5.8,��
2019/11/30,11:10,0.702,1.010,0.680,1.255,0.885,0.406,0.709,0.675,�k��,7.5,��
2019/11/30,11:20,0.702,1.010,0.678,1.255,0.886,0.408,0.709,0.673,�k��,7.7,��
2019/11/30,11:30,0.702,1.013,0.678,1.254,0.885,0.406,0.708,0.677,���k��,6.0,��
2019/11/30,11:40,0.703,1.012,0.679,1.256,0.887,0.405,0.707,0.676,�k��,6.0,��
2019/11/30,11:50,0.702,1.013,0.679,1.252,0.887,0.405,0.708,0.674,�k��,8.5,��
2019/11/30,12:00,0.703,1.009,0.679,1.254,0.886,0.406,0.707,0.675,�k��,6.0,��
2019/11/30,12:10,0.702,1.014,0.679,1.254,0.887,0.407,0.709,0.676,���k��,6.0,��
2019/11/30,12:20,0.703,1.016,0.680,1.257,0.888,0.406,0.710,0.674,���k��,5.2,��
2019/11/30,12:30,0.704,1.016,0.678,1.254,0.888,0.406,0.710,0.675,�k��,6.6,��
2019/11/30,12:40,0.704,1.014,0.679,1.254,0.886,0.407,0.710,0.676,��,4.9,��
2019/11/30,12:50,0.705,1.015,0.681,1.260,0.889,0.406,0.710,0.676,���k��,5.8,��
2019/11/30,13:00,0.704,1.016,0.682,1.256,0.886,0.406,0.710,0.675,��,5.2,��
2019/11/30,13:10,0.703,1.016,0.681,1.258,0.888,0.407,0.709,0.676,��,4.2,��
2019/11/30,13:20,0.704,1.015,0.681,1.255,0.887,0.406,0.712,0.675,�k��,5.3,��
2019/11/30,13:30,0.703,1.014,0.679,1.256,0.887,0.407,0.709,0.677,�k��,6.9,�L
2019/11/30,13:40,0.702,1.011,0.680,1.256,0.888,0.406,0.710,0.675,�k��,5.2,��
2019/11/30,13:50,0.703,1.012,0.680,1.255,0.887,0.407,0.709,0.675,���k��,4.0,��
2019/11/30,14:00,0.703,1.011,0.681,1.256,0.886,0.407,0.708,0.675,���k��,5.5,��
2019/11/30,14:10,0.704,1.010,0.679,1.257,0.888,0.407,0.709,0.675,�k��,4.6,��
2019/11/30,14:20,0.704,1.013,0.680,1.254,0.889,0.406,0.711,0.676,�k��,4.0,��
2019/11/30,14:30,0.705,1.013,0.681,1.256,0.887,0.406,0.711,0.675,���k��,3.9,��
2019/11/30,14:40,0.705,1.014,0.683,1.257,0.887,0.407,0.711,0.677,�k��,4.0,��
2019/11/30,14:50,0.704,1.016,0.679,1.256,0.888,0.408,0.713,0.675,�k��,4.0,��
2019/11/30,15:00,0.703,1.015,0.680,1.255,0.888,0.407,0.713,0.676,�k��,4.1,��
2019/11/30,15:10,0.703,1.014,0.680,1.258,0.887,0.408,0.712,0.675,�k��,2.7,��
2019/11/30,15:20,0.705,1.014,0.681,1.257,0.887,0.408,0.712,0.675,�k��,3.3,��
2019/11/30,15:30,0.703,1.013,0.682,1.256,0.886,0.406,0.712,0.675,�k�k��,4.2,��
2019/11/30,15:40,0.703,1.018,0.679,1.256,0.888,0.406,0.710,0.674,�k�k��,2.8,��
2019/11/30,15:50,0.702,1.014,0.678,1.257,0.888,0.408,0.711,0.674,�k��,2.9,��
2019/11/30,16:00,0.702,1.016,0.680,1.254,0.885,0.406,0.711,0.677,�k�k��,2.9,��
2019/11/30,16:10,0.702,1.015,0.680,1.255,0.889,0.406,0.710,0.677,�k�k��,2.2,��
2019/11/30,16:20,0.700,1.015,0.680,1.256,0.887,0.408,0.711,0.673,�k�k��,2.7,��
2019/11/30,16:30,0.702,1.017,0.679,1.255,0.886,0.407,0.711,0.676,�k�k��,2.8,��
2019/11/30,16:40,0.702,1.017,0.681,1.258,0.885,0.408,0.709,0.674,�k�k��,3.1,��
2019/11/30,16:50,0.703,1.012,0.678,1.256,0.886,0.405,0.710,0.675,�k�k��,3.3,��
2019/11/30,17:00,0.701,1.016,0.680,1.256,0.889,0.406,0.710,0.675,�k�k��,3.0,��
2019/11/30,17:10,0.702,1.015,0.679,1.255,0.888,0.407,0.709,0.676,�k��,3.9,��
2019/11/30,17:20,0.702,1.016,0.680,1.256,0.888,0.405,0.710,0.673,�k��,4.0,��
2019/11/30,17:30,0.702,1.016,0.679,1.257,0.887,0.405,0.709,0.675,���k��,3.3,��
2019/11/30,17:40,0.701,1.014,0.680,1.254,0.887,0.407,0.709,0.674,�k��,3.8,��
2019/11/30,17:50,0.701,1.014,0.679,1.257,0.887,0.405,0.710,0.673,�k��,3.0,��
2019/11/30,18:00,0.701,1.015,0.679,1.257,0.886,0.405,0.708,0.674,�k��,2.9,��
2019/11/30,18:10,0.700,1.017,0.679,1.258,0.886,0.405,0.709,0.675,���k��,2.8,��
2019/11/30,18:20,0.702,1.013,0.680,1.256,0.887,0.406,0.709,0.675,�k��,2.7,��
2019/11/30,18:30,0.699,1.015,0.679,1.257,0.888,0.406,0.709,0.673,���k��,2.6,��
2019/11/30,18:40,0.701,1.016,0.679,1.255,0.886,0.406,0.709,0.675,���k��,3.0,��
2019/11/30,18:50,0.702,1.014,0.679,1.255,0.885,0.404,0.709,0.674,���쐼,2.4,��
2019/11/30,19:00,0.701,1.014,0.679,1.257,0.887,0.406,0.707,0.675,�쐼,1.5,��
2019/11/30,19:10,0.700,1.015,0.679,1.257,0.887,0.406,0.708,0.673,���쐼,1.7,��
2019/11/30,19:20,0.700,1.016,0.680,1.256,0.888,0.405,0.709,0.675,���쐼,2.5,��
2019/11/30,19:30,0.700,1.013,0.680,1.254,0.888,0.407,0.707,0.675,���쐼,2.9,��
2019/11/30,19:40,0.701,1.015,0.678,1.254,0.887,0.407,0.709,0.674,���쐼,3.1,��
2019/11/30,19:50,0.701,1.013,0.681,1.256,0.887,0.406,0.709,0.674,���쐼,2.6,��
2019/11/30,20:00,0.701,1.014,0.679,1.256,0.887,0.406,0.708,0.674,���쐼,2.7,��
2019/11/30,20:10,0.700,1.015,0.679,1.258,0.886,0.404,0.708,0.675,���쐼,2.5,��
2019/11/30,20:20,0.701,1.013,0.680,1.255,0.887,0.406,0.706,0.675,���쐼,2.9,��
2019/11/30,20:30,0.699,1.016,0.680,1.257,0.887,0.404,0.709,0.675,��,2.5,��
2019/11/30,20:40,0.700,1.013,0.679,1.256,0.886,0.406,0.709,0.673,��,1.5,��
2019/11/30,20:50,0.699,1.014,0.679,1.256,0.888,0.405,0.708,0.674,��,1.0,��
2019/11/30,21:00,0.700,1.016,0.677,1.256,0.887,0.406,0.707,0.672,���k��,1.1,��
2019/11/30,21:10,0.701,1.015,0.678,1.256,0.888,0.405,0.709,0.675,���쐼,0.9,��
2019/11/30,21:20,0.701,1.015,0.680,1.258,0.886,0.406,0.709,0.675,���쐼,1.5,��
2019/11/30,21:30,0.699,1.012,0.680,1.257,0.886,0.405,0.709,0.673,��,1.1,��
2019/11/30,21:40,0.699,1.013,0.679,1.256,0.886,0.404,0.708,0.673,��,1.5,��
2019/11/30,21:50,0.700,1.013,0.678,1.255,0.888,0.406,0.707,0.674,��,2.4,��
2019/11/30,22:00,0.701,1.012,0.679,1.256,0.884,0.405,0.708,0.674,��,3.5,��
2019/11/30,22:10,0.700,1.013,0.680,1.258,0.887,0.404,0.708,0.673,��,3.1,��
2019/11/30,22:20,0.701,1.013,0.679,1.256,0.885,0.407,0.708,0.674,��,2.8,��
2019/11/30,22:30,0.698,1.012,0.678,1.256,0.887,0.405,0.708,0.674,��,3.8,��
2019/11/30,22:40,0.700,1.015,0.679,1.254,0.886,0.406,0.710,0.674,��,3.5,��
2019/11/30,22:50,0.699,1.013,0.677,1.255,0.886,0.405,0.708,0.675,��,4.7,��
2019/11/30,23:00,0.700,1.014,0.678,1.257,0.887,0.405,0.707,0.674,��,4.4,��
2019/11/30,23:10,0.699,1.015,0.680,1.255,0.887,0.405,0.708,0.674,��,3.8,��
2019/11/30,23:20,0.700,1.014,0.680,1.257,0.885,0.405,0.708,0.674,���쐼,2.8,��
2019/11/30,23:30,0.700,1.015,0.679,1.255,0.887,0.405,0.708,0.673,���쐼,3.9,��
2019/11/30,23:40,0.698,1.012,0.678,1.259,0.885,0.406,0.709,0.673,��,3.8,��
2019/11/30,23:50,0.699,1.014,0.679,1.254,0.887,0.405,0.709,0.673,���쐼,2.5,��
